Weather Roundup
Issued by NWS Corpus Christi, TX

Home | Current Version | Previous Version | Text Only | Print | Product List | Glossary On
Versions: 1 2 3 4 5 6 7 8 9 10 11 12 13 14 15 16 17 18 19 20 21 22 23 24 25 26 27 28 29 30 31 32 33 34 35 36 37 38 39 40 41 42 43 44 45 46 47 48 49 50
000
ASUS44 KCRP 201210
HRRCRP

SOUTH TEXAS REGIONAL WEATHER ROUNDUP
NATIONAL WEATHER SERVICE CORPUS CHRISTI TX
700 AM CDT MON OCT 20 2014


TXZ229>244-201300-
...CORPUS CHRISTI AREA OBSERVATIONS...

CITY           SKY/WX    TMP DP  RH WIND       PRES   REMARKS
CORPUS CHRISTI CLOUDY    72  69  90 N9        29.95R
NAS CORPUS CHR MOCLDY    77  72  84 E7        29.94R
ROCKPORT       PTCLDY    72  69  90 N8        29.95S
KINGSVILLE NAS MOCLDY    71  70  96 N8        29.95R
ALICE          CLOUDY    70  68  93 N9        29.96R FOG
FALFURRIAS     CLOUDY    71  68  90 NE5       29.94R
$$

...VICTORIA AREA OBSERVATIONS...

CITY           SKY/WX    TMP DP  RH WIND       PRES   REMARKS
VICTORIA       PTCLDY    64  63  96 NE5       30.00R FOG
BEEVILLE       FAIR      67  67  99 NE3       29.98R
PLEASANTON     CLEAR     64  63  94 NE3       30.01S FOG
SAN ANTONIO    MOCLDY    67  63  87 N5        30.03R
$$

...LAREDO AREA OBSERVATIONS...

CITY           SKY/WX    TMP DP  RH WIND       PRES   REMARKS
LAREDO         CLEAR     67  67 100 NE9       29.99R
COTULLA        MOCLDY    68  65  90 E8        29.99R FOG
DEL RIO        CLOUDY    66  62  87 E7        30.00R
MCALLEN        CLEAR     71  67  87 N5        29.93R
HEBBRONVILLE   MOCLDY    68  66  93 N6        29.98R
$$

...OTHER TEXAS OBSERVATIONS...

CITY           SKY/WX    TMP DP  RH WIND       PRES   REMARKS
BROWNSVILLE    MOCLDY    72  69  90 CALM      29.91R
HOUSTON        PTCLDY    60  57  89 N3        30.02R
COL. STATION   CLEAR     59  56  89 N5        30.05R
AUSTIN         PTCLDY    58  58 100 CALM      30.05R
WACO           CLEAR     56  55  97 CALM      30.07R
FORT WORTH     PTCLDY    59  54  83 CALM      30.07R
WICHITA FALLS  PTCLDY    57  55  93 S5        30.05R
LUBBOCK        PTCLDY    51  50  96 W5        30.10S
EL PASO        MOCLDY    58  54  86 N8        30.07S
$$

...MARINE OBSERVATIONS...

STATION/POSITION TIME  SKY/WX   TEMP    WIND        PRES    VSBY  WAVE   SWELL
                                AIR SEA DIR/SP/G                  HT/PER HT/PER
                 (UTC)          (F)     (DEG/KT/KT) (MB)    (MI)  (FT/S) (FT/S)
PORT ARANSAS     1100            79 79   80/ 14/ 15 1014.1R
BUOY 90 E PORT A 1200            79 81   70/ 16/ 19 1014.3R         4/ 6
BUOY 45 SE BAFFI 1200            80 80  110/ 12/ 14 1012.7R         4/ 6   3/ 6
BUOY 200 E PT IS 1200            80 82  100/ 12/ 16 1012.5R         3/ 6
BUOY 15 E GALVES 1200            75 80   80/ 12/ 14 1015.2R         3/ 4
$$


USA.gov is the U.S. government's official web portal to all federal, state and local government web resources and services.